Regional Weather Roundup
Issued by NWS

Home | Current Version | Previous Version | Text Only | Print | Product List | Glossary On
Versions: 1 2 3 4 5 6 7 8 9 10 11 12 13 14 15 16 17 18 19 20 21 22 23 24 25 26 27 28 29 30 31 32 33 34 35 36 37 38 39 40 41 42 43 44 45 46 47 48 49 50
000
ASUS43 KOAX 031302
RWRNE

WEATHER ROUNDUP FOR NEBRASKA
NATIONAL WEATHER SERVICE OMAHA NE
800 AM CDT MON AUG 03 2015

NOTES: SATELLITE DATA IS BEING USED TO AUGMENT CLOUD COVER ABOVE
       12000 FEET.
       "FAIR" INDICATES FEW OR NO CLOUDS BELOW 12,000 FEET WITH NO
       SIGNIFICANT WEATHER AND/OR OBSTRUCTIONS TO VISIBILITY.

  * THESE STATIONS DO NOT REPORT WEATHER SUCH AS RAIN...SNOW OR FOG.

NEZ001>004-019>022-054>056-031400-
NEBRASKA PANHANDLE

CITY           SKY/WX    TMP DP  RH WIND       PRES   REMARKS
SCOTTSBLUFF    PTSUNNY   62  56  80 N5        30.03R
ALLIANCE       PTSUNNY   61  58  90 E3        30.03R
CHADRON        PTSUNNY   60  56  86 W3        30.02R
KIMBALL        MOSUNNY   61  53  74 W5        30.05S
SIDNEY         MOSUNNY   63  56  78 NE5       30.05R
$$

NEZ057>060-069>072-079>082-031400-
SOUTHWEST NEBRASKA

CITY           SKY/WX    TMP DP  RH WIND       PRES   REMARKS
NORTH PLATTE   MOSUNNY   63  60  90 E3        30.02R
IMPERIAL       MOSUNNY   65  56  72 SE7       30.01R
LEXINGTON      MOSUNNY   66  64  92 E5        30.00R
MCCOOK         MOSUNNY   64  59  83 NE5       29.99R
$$

NEZ005>010-023>029-035>040-094-031400-
NORTH CENTRAL NEBRASKA

CITY           SKY/WX    TMP DP  RH WIND       PRES   REMARKS
AINSWORTH      MOSUNNY   64  61  91 CALM      30.04R
BROKEN BOW     PTSUNNY   67  61  81 E7        30.04R
ORD            PTSUNNY   64  61  90 E3        30.04R
$$

NEZ041-046>049-061>064-073>077-083>087-031400-
SOUTH CENTRAL NEBRASKA

CITY           SKY/WX    TMP DP  RH WIND       PRES   REMARKS
GRAND ISLAND   PTSUNNY   66  63  90 NE8       29.99R
AURORA         PTSUNNY   67  64  91 NE8       29.98R
HASTINGS       MOSUNNY   67  65  93 E7        29.98R
HEBRON         CLOUDY    70  67  90 NE7       29.94R FOG
HOLDREGE       SUNNY     65  63  92 NE5       29.99R
KEARNEY *      MOSUNNY   64  61  88 NE8       29.99R
YORK           MOSUNNY   66  63  88 NE9       29.98R
$$

NEZ011>018-030>034-042>045-031400-
NORTHEAST NEBRASKA

CITY           SKY/WX    TMP DP  RH WIND       PRES   REMARKS
NORFOLK        PTSUNNY   68  61  78 CALM      30.00S
ALBION         PTSUNNY   65  58  78 N6        30.05R
BLAIR          SUNNY     68  61  77 NE5       29.96R
COLUMBUS *     PTSUNNY   64  55  72 NE6       30.00R
FREMONT        MOSUNNY   69  61  73 NE3       29.97R
TEKAMAH        MOSUNNY   67  64  90 N3        29.96R
WAYNE          MOSUNNY   62  61  94 CALM      29.99S
$$

NEZ050>053-065>068-078-088>093-031400-
SOUTHEAST NEBRASKA

CITY           SKY/WX    TMP DP  RH WIND       PRES   REMARKS
LINCOLN        SUNNY     71  63  75 NE8       29.95S
OMAHA EPPLEY   PTSUNNY   69  64  84 N5        29.95S
BEATRICE       CLOUDY    70  67  90 NE8       29.94R
FALLS CITY     PTSUNNY   72  66  81 E9        29.93R
NEBRASKA CITY  CLOUDY    70  61  73 E7        29.95R
$$

NEZ044-045-051>053-067-031400-
OMAHA AREA

CITY           SKY/WX    TMP DP  RH WIND       PRES   REMARKS
OMAHA EPPLEY   PTSUNNY   69  64  84 N5        29.95S
BLAIR          SUNNY     68  61  77 NE5       29.96R
FREMONT        MOSUNNY   69  61  73 NE3       29.97R
WAHOO          FAIR      67  64  90 N3        29.96R
$$


USA.gov is the U.S. government's official web portal to all federal, state and local government web resources and services.